Location: Aldenham
(51.6667°N, 0.3500°W)
Time: 06:18:45
(UTC+00:00)

Altair - Pass Details

Date: 23 February 2026
Orbit: 1502 x 1682 km, 47.2° (Epoch: 9 March)

Event Time Altitude Azimuth Distance (km) Brightness Sun altitude
Rises 09:05:55 0° 285° (WNW) 4,685 9.5 16.4°
Reaches altitude 10° 09:09:11 10° 278° (W) 3,721 9.1 16.8°
Maximum altitude 09:17:34 38° 215° (SW) 2,244 8.7 17.7°
Drops below altitude 10° 09:26:13 10° 152° (SSE) 3,837 11.4 18.7°
Sets 09:29:39 0° 145° (SE) 4,845 11.7 19.1°
